Time,TemperatureF,DewpointF,PressureIn,WindDirection,WindDirectionDegrees,WindSpeedMPH,WindSpeedGustMPH,Humidity,HourlyPrecipIn,Conditions,Clouds,dailyrainin,SoftwareType,DateUTC
2013-01-19 00:12:00,39.2,36.0,30.16,WSW,248,0.0,0.0,89,0.00,,,0.00,weatherlink.com 1.10,2013-01-19 08:12:00,
2013-01-19 00:27:00,38.9,36.0,30.16,WSW,248,0.0,0.0,89,0.00,,,0.00,weatherlink.com 1.10,2013-01-19 08:27:00,
2013-01-19 00:42:00,38.0,35.0,30.16,WSW,248,0.0,0.0,89,0.00,,,0.00,weatherlink.com 1.10,2013-01-19 08:42:00,
2013-01-19 00:57:00,37.2,35.0,30.16,WSW,248,0.0,0.0,90,0.00,,,0.00,weatherlink.com 1.10,2013-01-19 08:57:00,
2013-01-19 01:12:00,37.0,35.0,30.16,WSW,248,0.0,0.0,91,0.00,,,0.00,weatherlink.com 1.10,2013-01-19 09:12:00,
2013-01-19 01:27:00,36.4,34.0,30.16,WSW,248,0.0,0.0,92,0.00,,,0.00,weatherlink.com 1.10,2013-01-19 09:27:00,
2013-01-19 01:42:00,36.3,35.0,30.17,WSW,248,0.0,0.0,93,0.00,,,0.00,weatherlink.com 1.10,2013-01-19 09:42:00,
2013-01-19 01:57:00,35.5,33.0,30.17,WSW,248,0.0,0.0,92,0.00,,,0.00,weatherlink.com 1.10,2013-01-19 09:57:00,
2013-01-19 02:12:00,34.9,33.0,30.17,WSW,248,0.0,0.0,92,0.00,,,0.00,weatherlink.com 1.10,2013-01-19 10:12:00,
2013-01-19 02:27:00,34.9,33.0,30.17,WSW,248,0.0,0.0,93,0.00,,,0.00,weatherlink.com 1.10,2013-01-19 10:27:00,
2013-01-19 02:42:00,34.4,33.0,30.18,WSW,248,0.0,0.0,93,0.00,,,0.00,weatherlink.com 1.10,2013-01-19 10:42:00,
2013-01-19 02:57:00,34.3,33.0,30.18,WSW,248,0.0,0.0,94,0.00,,,0.00,weatherlink.com 1.10,2013-01-19 10:57:00,
2013-01-19 03:12:00,34.3,33.0,30.18,WSW,248,0.0,0.0,95,0.00,,,0.00,weatherlink.com 1.10,2013-01-19 11:12:00,
2013-01-19 04:57:00,32.9,32.0,30.18,WSW,248,0.0,0.0,95,0.00,,,0.00,weatherlink.com 1.10,2013-01-19 12:57:00,
2013-01-19 05:12:00,32.7,32.0,30.18,WSW,248,0.0,0.0,95,0.00,,,0.00,weatherlink.com 1.10,2013-01-19 13:12:00,
2013-01-19 05:27:00,32.3,31.0,30.19,WSW,248,0.0,0.0,95,0.00,,,0.00,weatherlink.com 1.10,2013-01-19 13:27:00,
2013-01-19 05:42:00,32.7,32.0,30.19,WSW,248,0.0,0.0,96,0.00,,,0.00,weatherlink.com 1.10,2013-01-19 13:42:00,
2013-01-19 05:57:00,32.4,31.0,30.19,WSW,247,0.0,0.0,95,0.00,,,0.00,weatherlink.com 1.10,2013-01-19 13:57:00,
2013-01-19 06:12:00,32.1,31.0,30.20,WSW,248,0.0,0.0,95,0.00,,,0.00,weatherlink.com 1.10,2013-01-19 14:12:00,
2013-01-19 06:27:00,31.8,31.0,30.20,WSW,248,0.0,0.0,96,0.00,,,0.00,weatherlink.com 1.10,2013-01-19 14:27:00,
2013-01-19 06:43:00,32.4,31.0,30.20,WSW,248,0.0,0.0,96,0.00,,,0.00,weatherlink.com 1.10,2013-01-19 14:43:00,
2013-01-19 06:57:00,32.3,31.0,30.20,WSW,248,0.0,0.0,95,0.00,,,0.00,weatherlink.com 1.10,2013-01-19 14:57:00,
2013-01-19 07:13:00,32.0,31.0,30.21,WSW,248,0.0,0.0,96,0.00,,,0.00,weatherlink.com 1.10,2013-01-19 15:13:00,
2013-01-19 07:28:00,31.8,31.0,30.21,WSW,248,0.0,0.0,96,0.00,,,0.00,weatherlink.com 1.10,2013-01-19 15:28:00,
2013-01-19 07:43:00,31.8,31.0,30.21,WSW,248,0.0,0.0,96,0.00,,,0.00,weatherlink.com 1.10,2013-01-19 15:43:00,
2013-01-19 07:58:00,33.7,33.0,30.21,WSW,248,0.0,0.0,96,0.00,,,0.00,weatherlink.com 1.10,2013-01-19 15:58:00,
2013-01-19 08:13:00,35.1,34.0,30.21,WSW,248,0.0,0.0,96,0.00,,,0.00,weatherlink.com 1.10,2013-01-19 16:13:00,
2013-01-19 08:28:00,37.4,36.0,30.21,WSW,248,0.0,0.0,95,0.00,,,0.00,weatherlink.com 1.10,2013-01-19 16:28:00,
2013-01-19 08:43:00,39.5,37.0,30.22,WSW,248,0.0,0.0,91,0.00,,,0.00,weatherlink.com 1.10,2013-01-19 16:43:00,
2013-01-19 08:58:00,40.9,38.0,30.22,WSW,248,0.0,1.0,90,0.00,,,0.00,weatherlink.com 1.10,2013-01-19 16:58:00,
2013-01-19 09:13:00,43.1,40.0,30.23,SSW,212,0.0,1.0,89,0.00,,,0.00,weatherlink.com 1.10,2013-01-19 17:13:00,
2013-01-19 09:28:00,45.4,42.0,30.23,SSW,205,0.0,1.0,86,0.00,,,0.00,weatherlink.com 1.10,2013-01-19 17:28:00,
2013-01-19 09:43:00,47.1,42.0,30.24,SSW,210,0.0,3.0,82,0.00,,,0.00,weatherlink.com 1.10,2013-01-19 17:43:00,
2013-01-19 09:58:00,48.2,42.0,30.24,NNW,330,0.0,2.0,78,0.00,,,0.00,weatherlink.com 1.10,2013-01-19 17:58:00,
2013-01-19 10:13:00,48.9,42.0,30.24,SSW,205,0.0,2.0,77,0.00,,,0.00,weatherlink.com 1.10,2013-01-19 18:13:00,
2013-01-19 10:28:00,50.5,43.0,30.24,SSW,203,1.0,3.0,74,0.00,,,0.00,weatherlink.com 1.10,2013-01-19 18:28:00,
2013-01-19 10:43:00,52.1,43.0,30.23,West,281,1.0,2.0,71,0.00,,,0.00,weatherlink.com 1.10,2013-01-19 18:43:00,
2013-01-19 10:58:00,53.6,43.0,30.23,ESE,114,1.0,2.0,68,0.00,,,0.00,weatherlink.com 1.10,2013-01-19 18:58:00,
2013-01-19 11:28:00,55.5,42.0,30.21,SE,134,0.0,2.0,60,0.00,,,0.00,weatherlink.com 1.10,2013-01-19 19:28:00,
2013-01-19 11:43:00,57.0,42.0,30.20,WNW,297,0.0,2.0,58,0.00,,,0.00,weatherlink.com 1.10,2013-01-19 19:43:00,
2013-01-19 12:14:00,58.7,42.0,30.19,WNW,296,0.0,4.0,55,0.00,,,0.00,weatherlink.com 1.10,2013-01-19 20:14:00,
2013-01-19 12:29:00,60.9,41.0,30.18,NNW,331,1.0,2.0,48,0.00,,,0.00,weatherlink.com 1.10,2013-01-19 20:29:00,
2013-01-19 12:44:00,61.7,42.0,30.17,NW,309,0.0,3.0,49,0.00,,,0.00,weatherlink.com 1.10,2013-01-19 20:44:00,
2013-01-19 12:59:00,60.6,41.0,30.17,South,174,1.0,2.0,49,0.00,,,0.00,weatherlink.com 1.10,2013-01-19 20:59:00,
2013-01-19 13:14:00,59.9,39.0,30.17,SE,142,2.0,3.0,47,0.00,,,0.00,weatherlink.com 1.10,2013-01-19 21:14:00,
2013-01-19 13:44:00,60.3,37.0,30.16,ENE,58,0.0,3.0,43,0.00,,,0.00,weatherlink.com 1.10,2013-01-19 21:44:00,
2013-01-19 13:59:00,61.3,38.0,30.16,WNW,292,0.0,3.0,42,0.00,,,0.00,weatherlink.com 1.10,2013-01-19 21:59:00,
2013-01-19 14:14:00,62.8,38.0,30.15,SSW,195,1.0,2.0,40,0.00,,,0.00,weatherlink.com 1.10,2013-01-19 22:14:00,
2013-01-19 14:29:00,63.5,37.0,30.15,SSE,153,0.0,2.0,38,0.00,,,0.00,weatherlink.com 1.10,2013-01-19 22:29:00,
2013-01-19 14:59:00,64.9,38.0,30.15,WSW,238,1.0,2.0,37,0.00,,,0.00,weatherlink.com 1.10,2013-01-19 22:59:00,
2013-01-19 15:14:00,64.8,37.0,30.14,South,184,1.0,-999.0,36,-99.99,,,0.00,weatherlink.com 1.10,2013-01-19 23:14:00,
2013-01-19 15:29:00,64.9,36.0,30.14,ESE,102,0.0,2.0,35,0.00,,,0.00,weatherlink.com 1.10,2013-01-19 23:29:00,
2013-01-19 15:44:00,64.7,37.0,30.15,SE,133,2.0,2.0,36,0.00,,,0.00,weatherlink.com 1.10,2013-01-19 23:44:00,
2013-01-19 15:59:00,64.4,37.0,30.14,WSW,243,0.0,1.0,36,0.00,,,0.00,weatherlink.com 1.10,2013-01-19 23:59:00,
2013-01-19 16:29:00,61.8,38.0,30.14,WSW,250,0.0,1.0,41,0.00,,,0.00,weatherlink.com 1.10,2013-01-20 00:29:00,
2013-01-19 16:59:00,56.7,36.0,30.14,SW,235,0.0,1.0,47,0.00,,,0.00,weatherlink.com 1.10,2013-01-20 00:59:00,
2013-01-19 17:44:00,52.0,37.0,30.14,SW,235,0.0,0.0,58,0.00,,,0.00,weatherlink.com 1.10,2013-01-20 01:44:00,
2013-01-19 17:59:00,50.7,38.0,30.14,SW,235,0.0,0.0,61,0.00,,,0.00,weatherlink.com 1.10,2013-01-20 01:59:00,
2013-01-19 18:14:00,49.7,37.0,30.14,SW,234,0.0,0.0,63,0.00,,,0.00,weatherlink.com 1.10,2013-01-20 02:14:00,
2013-01-19 18:29:00,49.0,38.0,30.15,SW,235,0.0,0.0,65,0.00,,,0.00,weatherlink.com 1.10,2013-01-20 02:29:00,
2013-01-19 18:44:00,48.0,37.0,30.15,SW,235,0.0,0.0,67,0.00,,,0.00,weatherlink.com 1.10,2013-01-20 02:44:00,
2013-01-19 18:59:00,46.9,38.0,30.15,SW,235,0.0,0.0,71,0.00,,,0.00,weatherlink.com 1.10,2013-01-20 02:59:00,
2013-01-19 19:14:00,46.1,38.0,30.16,SW,235,0.0,0.0,72,0.00,,,0.00,weatherlink.com 1.10,2013-01-20 03:14:00,
2013-01-19 19:29:00,45.4,37.0,30.16,SW,235,0.0,0.0,72,0.00,,,0.00,weatherlink.com 1.10,2013-01-20 03:29:00,
2013-01-19 19:44:00,44.5,37.0,30.16,SW,235,0.0,0.0,74,0.00,,,0.00,weatherlink.com 1.10,2013-01-20 03:44:00,
2013-01-19 20:14:00,44.1,37.0,30.17,SW,235,0.0,0.0,75,0.00,,,0.00,weatherlink.com 1.10,2013-01-20 04:14:00,
2013-01-19 20:44:00,43.6,37.0,30.18,SW,234,0.0,0.0,77,0.00,,,0.00,weatherlink.com 1.10,2013-01-20 04:44:00,
2013-01-19 20:59:00,42.9,36.0,30.18,SW,235,0.0,0.0,76,0.00,,,0.00,weatherlink.com 1.10,2013-01-20 04:59:00,
2013-01-19 21:14:00,42.3,36.0,30.18,SW,235,0.0,0.0,78,0.00,,,0.00,weatherlink.com 1.10,2013-01-20 05:14:00,
2013-01-19 21:29:00,41.9,37.0,30.19,SW,235,0.0,0.0,81,0.00,,,0.00,weatherlink.com 1.10,2013-01-20 05:29:00,
2013-01-19 21:44:00,43.5,38.0,30.19,SW,235,0.0,0.0,81,0.00,,,0.00,weatherlink.com 1.10,2013-01-20 05:44:00,
2013-01-19 21:59:00,43.7,37.0,30.19,SW,235,0.0,0.0,78,0.00,,,0.00,weatherlink.com 1.10,2013-01-20 05:59:00,
2013-01-19 22:14:00,41.9,37.0,30.20,SW,235,0.0,0.0,81,0.00,,,0.00,weatherlink.com 1.10,2013-01-20 06:14:00,
2013-01-19 22:29:00,41.1,37.0,30.20,SW,235,0.0,0.0,85,0.00,,,0.00,weatherlink.com 1.10,2013-01-20 06:29:00,
2013-01-19 22:44:00,40.4,36.0,30.20,SW,235,0.0,0.0,85,0.00,,,0.00,weatherlink.com 1.10,2013-01-20 06:44:00,
2013-01-19 22:59:00,39.6,36.0,30.20,SW,235,0.0,0.0,86,0.00,,,0.00,weatherlink.com 1.10,2013-01-20 06:59:00,
2013-01-19 23:14:00,39.8,36.0,30.20,SW,235,0.0,0.0,87,0.00,,,0.00,weatherlink.com 1.10,2013-01-20 07:14:00,
2013-01-19 23:29:00,39.3,36.0,30.20,SW,235,0.0,0.0,87,0.00,,,0.00,weatherlink.com 1.10,2013-01-20 07:29:00,
2013-01-19 23:44:00,38.4,35.0,30.20,SW,235,0.0,0.0,87,0.00,,,0.00,weatherlink.com 1.10,2013-01-20 07:44:00,
2013-01-19 23:59:00,37.7,35.0,30.20,SW,235,0.0,0.0,88,0.00,,,0.00,weatherlink.com 1.10,2013-01-20 07:59:00,